Regional Weather Roundup
Issued by NWS

Home | Current Version | Previous Version | Graphics & Text | Print | Product List | Glossary On
Versions: 1 2 3 4 5 6 7 8 9 10 11 12 13 14 15 16 17 18 19 20 21 22 23 24 25 26 27 28 29 30 31 32 33 34 35 36 37 38 39 40 41 42 43 44 45 46 47 48 49 50
000
ASUS43 KOAX 221802
RWRNE

WEATHER ROUNDUP FOR NEBRASKA
NATIONAL WEATHER SERVICE OMAHA NE
100 PM CDT MON SEP 22 2014

NOTES: SATELLITE DATA IS BEING USED TO AUGMENT CLOUD COVER ABOVE
       12000 FEET.
       "FAIR" INDICATES FEW OR NO CLOUDS BELOW 12,000 FEET WITH NO
       SIGNIFICANT WEATHER AND/OR OBSTRUCTIONS TO VISIBILITY.

  * THESE STATIONS DO NOT REPORT WEATHER SUCH AS RAIN...SNOW OR FOG.

NEZ001>004-019>022-054>056-221900-
NEBRASKA PANHANDLE

CITY           SKY/WX    TMP DP  RH WIND       PRES   REMARKS
SCOTTSBLUFF    CLOUDY    64  55  72 S12       30.12F
6HR MIN TEMP:  55; 6HR MAX TEMP:  64; 6HR PCP:  0.01;

CHADRON        CLOUDY    71  48  43 S16G29    30.04F
6HR MIN TEMP:  59; 6HR MAX TEMP:  72;

KIMBALL        CLOUDY    69  49  48 S17       30.15F
SIDNEY         CLOUDY    70  52  52 S22G32    30.17F
6HR MIN TEMP:  58; 6HR MAX TEMP:  71; 6HR PCP: TRACE;

$$

NEZ057>060-069>072-079>082-221900-
SOUTHWEST NEBRASKA

CITY           SKY/WX    TMP DP  RH WIND       PRES   REMARKS
NORTH PLATTE   CLOUDY    67  46  47 S13       30.22S
6HR MIN TEMP:  47; 6HR MAX TEMP:  71;

IMPERIAL       CLOUDY    68  44  42 S17G25    30.21F
6HR MIN TEMP:  57; 6HR MAX TEMP:  68; 6HR PCP: TRACE;

LEXINGTON      PTSUNNY   71  48  43 S16G23    30.24F
MCCOOK         LGT RAIN  72  43  35 S17G23    30.23F
6HR MIN TEMP:  51; 6HR MAX TEMP:  73; 6HR PCP: TRACE;

OGALLALA       CLOUDY    65  49  56 SE7G17    30.20S
$$

NEZ005>010-023>029-035>040-094-221900-
NORTH CENTRAL NEBRASKA

CITY           SKY/WX    TMP DP  RH WIND       PRES   REMARKS
VALENTINE      CLOUDY    70  43  37 S20       30.15F
6HR MIN TEMP:  48; 6HR MAX TEMP:  70;

AINSWORTH      CLOUDY    68  44  41 S20G25    30.19F
BROKEN BOW     CLOUDY    69  48  47 S17G25    30.23F
6HR MIN TEMP:  41; 6HR MAX TEMP:  69;

O`NEILL        MOSUNNY   73  50  44 S16G22    30.22F
ORD            PTSUNNY   71  49  45 S16G22    30.23F
6HR MIN TEMP:  39; 6HR MAX TEMP:  71;

THEDFORD       CLOUDY    70  44  39 S16G23    30.21F
$$

NEZ041-046>049-061>064-073>077-083>087-221900-
SOUTH CENTRAL NEBRASKA

CITY           SKY/WX    TMP DP  RH WIND       PRES   REMARKS
GRAND ISLAND   MOSUNNY   71  48  43 S9        30.27F
6HR MIN TEMP:  46; 6HR MAX TEMP:  71;

AURORA         MOSUNNY   71  45  39 S10       30.27F
HASTINGS       PTSUNNY   69  45  41 S14G21    30.27F
6HR MIN TEMP:  47; 6HR MAX TEMP:  70;

HEBRON         MOSUNNY   72  44  36 S6        30.29F
HOLDREGE       PTSUNNY   70  46  41 S16G26    30.27F
KEARNEY *      CLOUDY    70  48  46 SE13G21   30.27F
$$

NEZ011>018-030>034-042>045-221900-
NORTHEAST NEBRASKA

CITY           SKY/WX    TMP DP  RH WIND       PRES   REMARKS
NORFOLK        SUNNY     72  48  42 S12       30.26F
6HR MIN TEMP:  40; 6HR MAX TEMP:  72;

ALBION         SUNNY     71  47  42 S12G18    30.26F
BLAIR          SUNNY     70  49  46 SW8       30.29F
COLUMBUS *     SUNNY     72  48  43 S9        30.29F
FREMONT        SUNNY     70  46  41 SW6       30.29F
TEKAMAH        SUNNY     72  48  42 VRB7      30.28F
6HR MIN TEMP:  42; 6HR MAX TEMP:  73;

WAYNE          MOSUNNY   72  47  42 S9        30.27F
$$

NEZ050>053-065>068-078-088>093-221900-
SOUTHEAST NEBRASKA

CITY           SKY/WX    TMP DP  RH WIND       PRES   REMARKS
LINCOLN        SUNNY     71  46  40 S10       30.30F
6HR MIN TEMP:  42; 6HR MAX TEMP:  72;

OMAHA EPPLEY   MOSUNNY   69  48  47 S8        30.29F
6HR MIN TEMP:  47; 6HR MAX TEMP:  69;

BEATRICE       SUNNY     71  46  40 S10       30.30S
FALLS CITY     SUNNY     71  49  45 CALM      30.29F
6HR MIN TEMP:  46; 6HR MAX TEMP:  71;

NEBRASKA CITY    N/A     69  40  34 S7        30.30F
PLATTSMOUTH    SUNNY     69  47  45 S7        30.30F
$$

NEZ044-045-051>053-067-221900-
OMAHA AREA

CITY           SKY/WX    TMP DP  RH WIND       PRES   REMARKS
OMAHA EPPLEY   MOSUNNY   69  48  47 S8        30.29F
6HR MIN TEMP:  47; 6HR MAX TEMP:  69;

BLAIR          SUNNY     70  49  46 SW8       30.29F
FREMONT        SUNNY     70  46  41 SW6       30.29F
MILLARD        SUNNY     70  51  49 SE9       30.29F
OFFUTT AFB     SUNNY     71  53  53 S8        30.29F
PLATTSMOUTH    SUNNY     69  47  45 S7        30.30F
WAHOO          FAIR      72  43  35 S8        30.29F
$$



USA.gov is the U.S. government's official web portal to all federal, state and local government web resources and services.